[[{"header":{"parameterUnit":"m.s-1","parameterCategory":1,"la1":30.2991,"la2":30.254,"lo1":-89.0895,"lo2":-89.0444,"dy":0.0017,"dx":0.0017,"nx":28,"ny":28,"refTime":"2025-07-20T21:00:00:Z","depth":0,"parameterNumber":2,"parameterNumberName":"U-component_of_WINDS"},"data":[0,0,0,0,0,0,0,0,0,0,0,0,0,0,0,0,0,0,0,0,0,0,0,0,0,0,0,0,0,0,0,0,0,0,0,0,0,0,0,0,0,0,0,0,0,0,0,0,0,0,0,0,0,0,0,0,0,0,2.9621,2.9622,0,2.9715,2.9716,2.9717,2.9681,2.9679,2.9677,2.9674,2.9774,2.9779,2.9784,0,0,0,0,0,0,0,0,0,0,0,0,0,2.9412,2.9416,2.9621,2.9622,2.9623,2.9715,2.9716,2.9718,2.9681,2.9679,2.9676,2.9673,2.9773,2.9778,2.9784,0,0,0,0,0,0,0,0,0,0,0,0,0,2.9504,2.9417,2.9621,2.9616,2.9617,2.9715,2.9716,2.9718,2.9682,2.9679,2.9675,2.9672,2.9771,2.9778,2.9785,2.9894,0,0,2.9806,2.981,0,0,0,0,0,0,0,0,2.9499,2.9512,2.9616,2.9617,2.9617,2.9683,2.9679,2.9777,2.9683,2.9657,2.9674,2.9671,2.9747,2.9756,2.9781,2.9899,2.9903,2.9807,2.9811,2.9814,2.9816,0,0,0,0,0,0,0,2.9492,2.9507,2.9658,2.9617,2.9618,2.961,2.962,2.9698,2.972,2.9659,2.9657,2.9668,2.9747,2.9774,2.9783,2.9905,2.9807,2.9813,2.9818,2.982,3.0115,3.0118,0,0,0,0,0,0,2.9485,2.9502,2.9655,2.9661,2.9549,2.9616,2.9627,2.9665,2.9719,2.9723,2.9671,2.9666,2.9764,2.9775,2.9786,2.9916,2.9814,2.9821,2.9825,3.0111,3.0115,3.0119,0,0,0,0,0,0,2.9481,2.9499,2.9652,2.9581,2.96,2.9624,2.9667,2.9669,2.9696,2.9727,2.9731,2.9695,2.9761,2.9776,2.9867,2.9919,2.9824,2.9831,3.0107,3.0112,3.0117,3.0177,0,0,0,0,0,0,2.9475,2.9498,2.954,2.9582,2.9604,2.973,2.967,2.9673,2.9708,2.9703,2.9751,2.9755,2.976,2.9856,2.9874,2.9927,2.9836,3.0102,3.0109,3.0116,3.017,3.0183,3.0195,0,0,0,0,0,2.9468,2.9554,2.9542,2.9561,2.9656,2.9733,2.9746,2.9748,2.9712,2.9754,2.9774,2.9754,2.991,2.9866,2.9885,2.9941,3.0099,3.0107,3.0115,3.0165,3.0181,3.0194,0,0,0,0,0,0,2.9518,2.9559,2.9547,2.9649,2.9688,2.9727,2.978,2.9766,2.9817,2.981,2.9812,2.9823,2.9915,2.9938,2.9887,3.0048,2.9999,3.0012,3.003,3.0046,3.0058,3.005,2.9842,0,0,0,0,0,2.9541,2.96,2.9633,2.972,2.974,2.9757,2.9791,2.9789,2.983,2.9846,2.9873,2.9914,2.9972,3.001,3.0066,3.0173,3.0182,3.0221,3.0233,3.0243,3.0254,3.031,3.0327,3.0146,3.0146,3.0146,0,0,2.9589,2.9619,2.9656,2.9731,2.9761,2.9821,2.9771,2.9838,2.9883,2.9857,2.9943,2.9964,3.001,3.0108,3.0153,3.013,3.0305,3.0254,3.0261,3.0266,3.032,3.0337,3.0352,3.0151,3.015,3.0149,0,0,2.9708,2.9737,2.9811,2.9841,2.9886,2.9897,2.9914,2.9956,2.9968,3.0054,3.0035,3.0089,3.019,3.0222,3.0252,3.0381,3.0364,3.0399,3.0463,3.0517,3.0532,3.0544,3.0588,3.0604,3.0409,3.041,3.041,0,2.9762,2.9852,2.9852,2.9919,2.9952,2.9929,3.0004,3.0034,3.0096,3.0119,3.0092,3.0215,3.0245,3.035,3.0381,3.0407,3.0426,3.0393,3.0529,3.0542,3.0554,3.0596,3.0612,3.0413,3.0413,3.0413,3.0412,0,2.9915,2.9978,3.0033,3.009,3.0129,3.0201,3.0211,3.0251,3.0246,3.0259,3.0346,3.038,3.0441,3.0466,3.0463,3.057,3.0554,3.0528,3.0479,3.0575,3.0614,3.063,3.0419,3.0418,3.0416,3.0415,0,0,3.0069,3.0123,3.0143,3.0168,3.0215,3.0264,3.0334,3.0391,3.0425,3.0468,3.0526,3.061,3.0586,3.062,3.062,3.0668,3.0764,3.0636,3.0637,3.0657,3.0883,3.09,3.0919,3.0754,3.0757,3.0759,3.0878,0,3.0189,3.0309,3.031,3.0422,3.0478,3.0457,3.0518,3.0553,3.0567,3.0618,3.0634,3.0693,3.0657,3.0677,3.0724,3.0743,3.081,3.0735,3.0807,3.081,3.0794,3.094,3.0959,3.107,3.0894,3.0896,3.0898,0,3.0345,3.0391,3.0507,3.0544,3.0568,3.0622,3.0673,3.0722,3.0762,3.0769,3.0805,3.0797,3.0868,3.0817,3.0914,3.0863,3.0893,3.0906,3.0911,3.0916,3.0859,3.0948,3.1105,3.1121,3.0923,3.0921,3.0919,0,3.0443,3.0533,3.0614,3.0636,3.0682,3.072,3.0741,3.0777,3.0811,3.0856,3.0878,3.0933,3.0962,3.1004,3.1011,3.0973,3.1107,3.1057,3.1114,3.1114,3.1142,3.114,3.1305,3.1165,3.1165,3.1164,3.1164,0,3.0576,3.0647,3.0658,3.0707,3.0786,3.0787,3.0865,3.0883,3.0915,3.0968,3.0954,3.1003,3.101,3.1061,3.1067,3.1145,3.116,3.1166,3.1167,3.1167,3.1165,3.1185,3.1177,3.1169,3.1168,3.1167,3.1166,0,3.0697,3.0707,3.0793,3.0828,3.0839,3.0895,3.0926,3.0973,3.0984,3.1051,3.1067,3.1086,3.1145,3.1156,3.1227,3.1231,3.1324,3.1317,3.131,3.1308,3.1363,3.1357,3.1545,3.1569,3.1415,3.1416,3.1418,0,3.0781,3.0835,3.0875,3.0908,3.093,3.0985,3.1018,3.1021,3.1057,3.1104,3.1146,3.1203,3.1249,3.1346,3.1366,3.142,3.1414,3.1476,3.1422,3.1419,3.1412,3.1408,3.1412,3.1486,3.1487,3.1489,3.149,0,3.0927,3.0929,3.0977,3.1027,3.1067,3.1107,3.1145,3.1173,3.1181,3.1222,3.1281,3.1317,3.1388,3.1445,3.1498,3.152,3.1506,3.1507,3.1522,3.1522,3.1514,3.1517,3.1336,3.1502,3.1501,3.15,3.1499,3.1499,3.1031,3.1077,3.1111,3.1165,3.1194,3.1229,3.1274,3.129,3.1339,3.1396,3.1395,3.146,3.1497,3.1566,3.1591,3.1642,3.1622,3.1646,3.1651,3.1656,3.166,3.1507,3.1652,3.1652,3.1652,3.1651,3.1651,0,3.1175,3.1195,3.1245,3.1297,3.1339,3.1321,3.1361,3.1398,3.1454,3.1489,3.1534,3.1602,3.1656,3.1681,3.1734,3.177,3.1765,3.1784,3.1781,3.1786,3.1676,3.1656,3.1787,3.1787,3.1787,3.1787,3.1787,3.1787,3.1254,3.133,3.1336,3.1425,3.1446,3.1508,3.1532,3.1564,3.1591,3.1666,3.1711,3.1726,3.1756,3.1812,3.1861,3.1866,3.1886,3.1908,3.191,3.1808,3.1794,3.178,3.1762,3.1913,3.1913,3.2015,3.2016,3.2017]},{"header":{"parameterUnit":"m.s-1","parameterCategory":1,"la1":30.2991,"la2":30.254,"lo1":-89.0895,"lo2":-89.0444,"dy":0.0017,"dx":0.0017,"nx":28,"ny":28,"refTime":"2025-07-20T21:00:00:Z","depth":0,"parameterNumber":3,"parameterNumberName":"V-component_of_WINDS"},"data":[0,0,0,0,0,0,0,0,0,0,0,0,0,0,0,0,0,0,0,0,0,0,0,0,0,0,0,0,0,0,0,0,0,0,0,0,0,0,0,0,0,0,0,0,0,0,0,0,0,0,0,0,0,0,0,0,0,0,4.1995,4.1996,0,4.2102,4.2103,4.2105,4.2085,4.2083,4.2081,4.2079,4.2182,4.2186,4.219,0,0,0,0,0,0,0,0,0,0,0,0,0,4.1765,4.1769,4.1995,4.1996,4.1998,4.2102,4.2103,4.2105,4.2085,4.2083,4.2081,4.2079,4.218,4.2185,4.2191,0,0,0,0,0,0,0,0,0,0,0,0,0,4.1867,4.177,4.1995,4.2001,4.2002,4.2102,4.2104,4.2105,4.2086,4.2083,4.208,4.2078,4.2178,4.2185,4.2191,4.2289,0,0,4.2212,4.2215,0,0,0,0,0,0,0,0,4.1862,4.1876,4.1998,4.2,4.2002,4.2078,4.206,4.2167,4.2087,4.2054,4.2079,4.2076,4.2149,4.2158,4.2184,4.2294,4.2299,4.2213,4.2217,4.222,4.2221,0,0,0,0,0,0,0,4.1854,4.1871,4.2037,4.2,4.2003,4.1995,4.2007,4.208,4.2115,4.2056,4.2055,4.2069,4.2149,4.2177,4.2186,4.23,4.2212,4.2218,4.2222,4.2225,4.2495,4.2498,0,0,0,0,0,0,4.1847,4.1865,4.2034,4.204,4.1924,4.2002,4.2014,4.2056,4.2115,4.2121,4.2071,4.2067,4.2167,4.2178,4.2189,4.2308,4.2219,4.2226,4.223,4.2492,4.2496,4.2499,0,0,0,0,0,0,4.1842,4.1862,4.2029,4.1953,4.1973,4.2009,4.2055,4.206,4.2088,4.2126,4.2131,4.2094,4.2165,4.218,4.2265,4.2311,4.2229,4.2235,4.2488,4.2493,4.2497,4.2545,0,0,0,0,0,0,4.1835,4.186,4.19,4.1954,4.1978,4.2106,4.2058,4.2064,4.2101,4.2097,4.2149,4.2154,4.2164,4.2255,4.2272,4.2319,4.224,4.2484,4.249,4.2496,4.2539,4.255,4.256,0,0,0,0,0,4.1827,4.1907,4.1902,4.1922,4.2028,4.2108,4.2122,4.2134,4.2104,4.2143,4.2167,4.2153,4.2303,4.2264,4.2283,4.2332,4.2481,4.2489,4.2495,4.2534,4.2548,4.256,0,0,0,0,0,0,4.1855,4.1914,4.1909,4.201,4.2055,4.2105,4.2154,4.2148,4.22,4.2194,4.2204,4.2216,4.2302,4.2325,4.2281,4.2429,4.2388,4.2399,4.2411,4.2425,4.2435,4.2427,4.2246,0,0,0,0,0,4.1873,4.1936,4.1984,4.2067,4.2091,4.2119,4.2154,4.216,4.2205,4.2223,4.2254,4.2296,4.2353,4.239,4.2444,4.2543,4.2552,4.2585,4.2596,4.2604,4.2613,4.2666,4.2681,4.2522,4.2522,4.2522,0,0,4.1911,4.1951,4.1989,4.2074,4.211,4.2172,4.2135,4.2202,4.2248,4.2232,4.2315,4.2339,4.2387,4.2479,4.2521,4.2501,4.266,4.2613,4.262,4.2624,4.2675,4.269,4.2703,4.2527,4.2526,4.2525,0,0,4.2011,4.2049,4.2123,4.2159,4.2214,4.2233,4.225,4.2302,4.2318,4.2402,4.2392,4.2445,4.2543,4.2577,4.2607,4.2721,4.2709,4.2738,4.2792,4.2843,4.2856,4.2867,4.2906,4.292,4.2747,4.2747,4.2747,0,4.205,4.2146,4.216,4.223,4.2266,4.2258,4.2332,4.2366,4.2434,4.2459,4.2436,4.2559,4.2591,4.269,4.2718,4.2743,4.2762,4.2732,4.2853,4.2864,4.2875,4.2913,4.2927,4.275,4.275,4.275,4.2749,0,4.2191,4.2257,4.231,4.238,4.2422,4.2493,4.2516,4.2556,4.2558,4.2578,4.2662,4.27,4.2762,4.2786,4.2787,4.2886,4.2871,4.2851,4.2809,4.2893,4.2928,4.2943,4.2755,4.2754,4.2753,4.2752,0,0,4.231,4.2389,4.2407,4.2439,4.2499,4.2549,4.2619,4.2682,4.2716,4.2763,4.282,4.2904,4.2885,4.292,4.2925,4.297,4.3056,4.2944,4.2945,4.2962,4.3165,4.3179,4.3196,4.3049,4.3052,4.3054,4.316,0,4.2416,4.2542,4.2557,4.2668,4.2729,4.2722,4.2782,4.2824,4.2844,4.2897,4.2917,4.2976,4.2948,4.2969,4.3013,4.3036,4.3096,4.3029,4.31,4.3102,4.3087,4.3215,4.323,4.3329,4.3174,4.3177,4.3179,0,4.2555,4.261,4.2728,4.278,4.2806,4.286,4.2919,4.297,4.3016,4.3028,4.3067,4.3066,4.3135,4.3091,4.3185,4.3139,4.3168,4.3184,4.3188,4.3194,4.3145,4.3223,4.3361,4.3376,4.3201,4.3199,4.3197,0,4.263,4.2733,4.2817,4.2844,4.2906,4.2944,4.2972,4.3016,4.3053,4.3103,4.3126,4.3183,4.3214,4.3256,4.327,4.3237,4.3363,4.332,4.3372,4.3372,4.3398,4.3396,4.3542,4.3419,4.3419,4.3418,4.3418,0,4.2746,4.2818,4.2851,4.2903,4.2982,4.2998,4.3075,4.31,4.314,4.3194,4.319,4.3241,4.3256,4.3308,4.3319,4.3394,4.3408,4.3417,4.3419,4.3418,4.3416,4.3436,4.3429,4.3422,4.3421,4.3421,4.342,0,4.2842,4.2868,4.2959,4.3011,4.3026,4.3083,4.3126,4.3174,4.3194,4.3263,4.3279,4.3309,4.3371,4.3389,4.3462,4.3469,4.3557,4.3553,4.3542,4.3542,4.3592,4.3587,4.3755,4.3778,4.3641,4.3642,4.3643,0,4.2914,4.297,4.3029,4.3067,4.3097,4.3157,4.3195,4.3211,4.3251,4.3308,4.3349,4.341,4.346,4.3558,4.3584,4.364,4.3636,4.3691,4.3644,4.3641,4.3636,4.3632,4.3637,4.37,4.3701,4.3702,4.3703,0,4.3038,4.3048,4.3105,4.3167,4.3213,4.3262,4.3308,4.3338,4.3361,4.3405,4.3469,4.3508,4.3584,4.3644,4.37,4.3725,4.3717,4.3718,4.3733,4.3731,4.3723,4.3727,4.3566,4.3714,4.3713,4.3712,4.3712,4.3711,4.3124,4.3173,4.3223,4.3286,4.3323,4.3367,4.3415,4.3442,4.3497,4.3562,4.3567,4.3636,4.368,4.3755,4.3783,4.3835,4.3819,4.384,4.3846,4.3851,4.3855,4.3715,4.3846,4.3845,4.3845,4.3845,4.3845,0,4.3247,4.3279,4.3337,4.3404,4.3453,4.3445,4.3496,4.3537,4.3599,4.3642,4.3692,4.3765,4.3823,4.3855,4.3912,4.3948,4.3945,4.3962,4.3959,4.3964,4.3866,4.3848,4.3963,4.3963,4.3963,4.3963,4.3963,4.3963,4.3316,4.3399,4.3415,4.3516,4.3546,4.3617,4.3646,4.3685,4.372,4.3803,4.3853,4.3874,4.3912,4.3972,4.4024,4.4032,4.4052,4.4071,4.4076,4.3984,4.3971,4.396,4.3942,4.4075,4.4075,4.417,4.417,4.4171]}]]